[keps] orb07279.amsat

Ray Hoad r.hoad at att.net
Sat Oct 6 12:40:56 PDT 2007


SB KEPS @ AMSAT  $ORB07279.O
Orbital Elements  07279.OSCAR

HR AMSAT ORBITAL ELEMENTS FOR OSCAR SATELLITES
FROM WA5QGD FORT WORTH,TX October 6, 2007
Send Subscribe/unsubscribe to KEPS at 
http://www.amsat.org/mailman/listinfo/keps
BID: ORB07279.O
TO ALL RADIO AMATEURS BT

Satellite: AO-07
Catalog number: 07530
Epoch time:      07278.67350699
Element set:    0994
Inclination:      101.5041 deg
RA of node:       313.3897 deg
Eccentricity:    0.0012180
Arg of perigee:   040.9319 deg
Mean anomaly:     319.2663 deg
Mean motion:   12.53572695 rev/day
Decay rate:       -2.8e-07 rev/day^2
Epoch rev:           50496
Checksum:              318

Satellite: AO-10
Catalog number: 14129
Epoch time:      07278.31071089
Element set:    0433
Inclination:      026.0952 deg
RA of node:       252.8978 deg
Eccentricity:    0.6058906
Arg of perigee:   061.8890 deg
Mean anomaly:     345.9359 deg
Mean motion:   02.05870740 rev/day
Decay rate:      -2.73e-06 rev/day^2
Epoch rev:           18283
Checksum:              328

Satellite: UO-11
Catalog number: 14781
Epoch time:      07279.23578915
Element set:     489
Inclination:      098.1860 deg
RA of node:       304.0480 deg
Eccentricity:    0.0009398
Arg of perigee:   168.0181 deg
Mean anomaly:     192.1331 deg
Mean motion:   14.79582692 rev/day
Decay rate:        7.1e-07 rev/day^2
Epoch rev:           26615
Checksum:              326

Satellite: RS-15
Catalog number: 23439
Epoch time:      07278.84751580
Element set:    0094
Inclination:      064.8170 deg
RA of node:       187.9603 deg
Eccentricity:    0.0156035
Arg of perigee:   170.9264 deg
Mean anomaly:     189.4535 deg
Mean motion:   11.27552529 rev/day
Decay rate:       -3.9e-07 rev/day^2
Epoch rev:           52617
Checksum:              330

Satellite: FO-29
Catalog number: 24278
Epoch time:      07278.91159546
Element set:    0608
Inclination:      098.5638 deg
RA of node:       223.7490 deg
Eccentricity:    0.0350962
Arg of perigee:   156.3182 deg
Mean anomaly:     205.4562 deg
Mean motion:   13.52932420 rev/day
Decay rate:        1.0e-07 rev/day^2
Epoch rev:           54987
Checksum:              329

Satellite: SO-33
Catalog number: 25509
Epoch time:      07278.56749993
Element set:    0036
Inclination:      031.4347 deg
RA of node:       321.6611 deg
Eccentricity:    0.0355309
Arg of perigee:   312.2875 deg
Mean anomaly:     044.8146 deg
Mean motion:   14.28177741 rev/day
Decay rate:       1.04e-06 rev/day^2
Epoch rev:           46704
Checksum:              312

Satellite: AO-40
Catalog number: 26609
Epoch time:      07276.62628151
Element set:     947
Inclination:      006.6642 deg
RA of node:       117.5893 deg
Eccentricity:    0.7948240
Arg of perigee:   009.9589 deg
Mean anomaly:     359.5680 deg
Mean motion:   01.25585289 rev/day
Decay rate:      -1.00e-06 rev/day^2
Epoch rev:            3180
Checksum:              337

Satellite: VO-52
Catalog number: 28650
Epoch time:      07279.35974425
Element set:     745
Inclination:      097.8220 deg
RA of node:       347.5306 deg
Eccentricity:    0.0026120
Arg of perigee:   250.3119 deg
Mean anomaly:     109.5378 deg
Mean motion:   14.81365037 rev/day
Decay rate:       3.76e-06 rev/day^2
Epoch rev:           13087
Checksum:              312

Satellite: PO-63
Catalog number: 29712
Epoch time:      07279.40958400
Element set:     793
Inclination:      097.9111 deg
RA of node:       336.9716 deg
Eccentricity:    0.0015390
Arg of perigee:   126.0775 deg
Mean anomaly:     234.1863 deg
Mean motion:   14.79847518 rev/day
Decay rate:       6.11e-06 rev/day^2
Epoch rev:            3978
Checksum:              339

/EX
SB KEPS @ AMSAT  $ORB07279.D
Orbital Elements  07279.MICROS

HR AMSAT ORBITAL ELEMENTS FOR THE MICROSATS
FROM WA5QGD FORT WORTH,TX October 6, 2007
Send Subscribe/unsubscribe to KEPS at 
http://www.amsat.org/mailman/listinfo/keps
BID: ORB07279.D
TO ALL RADIO AMATEURS BT

Satellite: AO-16
Catalog number: 20439
Epoch time:      07279.41604356
Element set:     148
Inclination:      098.2071 deg
RA of node:       267.8961 deg
Eccentricity:    0.0010188
Arg of perigee:   211.7044 deg
Mean anomaly:     148.3542 deg
Mean motion:   14.31771626 rev/day
Decay rate:       -1.0e-08 rev/day^2
Epoch rev:           92446
Checksum:              299

Satellite: LO-19
Catalog number: 20442
Epoch time:      07278.94678236
Element set:    0074
Inclination:      098.1872 deg
RA of node:       276.6304 deg
Eccentricity:    0.0011100
Arg of perigee:   212.3450 deg
Mean anomaly:     147.7065 deg
Mean motion:   14.32012192 rev/day
Decay rate:       1.52e-06 rev/day^2
Epoch rev:           92454
Checksum:              282

Satellite: AO-27
Catalog number: 22825
Epoch time:      07278.53178704
Element set:    0795
Inclination:      098.3470 deg
RA of node:       243.6775 deg
Eccentricity:    0.0007684
Arg of perigee:   300.4332 deg
Mean anomaly:     059.6086 deg
Mean motion:   14.29218451 rev/day
Decay rate:       -7.5e-07 rev/day^2
Epoch rev:           73125
Checksum:              326

Satellite: IO-26
Catalog number: 22826
Epoch time:      07279.47004902
Element set:     494
Inclination:      098.3389 deg
RA of node:       245.6000 deg
Eccentricity:    0.0008318
Arg of perigee:   295.2147 deg
Mean anomaly:     064.8186 deg
Mean motion:   14.29466015 rev/day
Decay rate:        1.8e-07 rev/day^2
Epoch rev:           73147
Checksum:              316

Satellite: PO-28
Catalog number: 22829
Epoch time:      07278.53200497
Element set:    0770
Inclination:      098.3283 deg
RA of node:       245.8517 deg
Eccentricity:    0.0008856
Arg of perigee:   267.3695 deg
Mean anomaly:     092.6476 deg
Mean motion:   14.30167321 rev/day
Decay rate:       -5.2e-07 rev/day^2
Epoch rev:           73158
Checksum:              336

Satellite: GO-32
Catalog number: 25397
Epoch time:      07278.75425722
Element set:     418
Inclination:      098.4026 deg
RA of node:       321.0636 deg
Eccentricity:    0.0000280
Arg of perigee:   238.7211 deg
Mean anomaly:     121.3951 deg
Mean motion:   14.23130355 rev/day
Decay rate:      -2.32e-06 rev/day^2
Epoch rev:           47988
Checksum:              289

Satellite: MO-46
Catalog number: 26548
Epoch time:      07278.89914394
Element set:    0914
Inclination:      064.5563 deg
RA of node:       200.1513 deg
Eccentricity:    0.0001683
Arg of perigee:   188.1490 deg
Mean anomaly:     171.9562 deg
Mean motion:   14.83179114 rev/day
Decay rate:       -2.2e-07 rev/day^2
Epoch rev:           37995
Checksum:              329

Satellite: NO-44
Catalog number: 26931
Epoch time:      07278.84416876
Element set:    0701
Inclination:      067.0528 deg
RA of node:       222.4374 deg
Eccentricity:    0.0006378
Arg of perigee:   251.4035 deg
Mean anomaly:     108.6372 deg
Mean motion:   14.29499170 rev/day
Decay rate:       2.73e-06 rev/day^2
Epoch rev:           31391
Checksum:              313

Satellite: SO-50
Catalog number: 27607
Epoch time:      07279.52884308
Element set:     424
Inclination:      064.5577 deg
RA of node:       106.9702 deg
Eccentricity:    0.0067683
Arg of perigee:   332.0245 deg
Mean anomaly:     027.7208 deg
Mean motion:   14.71291268 rev/day
Decay rate:        8.3e-07 rev/day^2
Epoch rev:           25750
Checksum:              316

Satellite: CO-55
Catalog number: 27844
Epoch time:      07278.54828793
Element set:    0137
Inclination:      098.7208 deg
RA of node:       285.3518 deg
Eccentricity:    0.0010336
Arg of perigee:   129.1929 deg
Mean anomaly:     231.0168 deg
Mean motion:   14.20534813 rev/day
Decay rate:        5.4e-07 rev/day^2
Epoch rev:           22114
Checksum:              310

Satellite: CO-57
Catalog number: 27848
Epoch time:      07278.51259610
Element set:    0095
Inclination:      098.7198 deg
RA of node:       284.4741 deg
Eccentricity:    0.0010133
Arg of perigee:   132.6582 deg
Mean anomaly:     227.5446 deg
Mean motion:   14.20350265 rev/day
Decay rate:       -1.3e-07 rev/day^2
Epoch rev:           22111
Checksum:              296

Satellite: AO-51
Catalog number: 28375
Epoch time:      07278.51892538
Element set:    0927
Inclination:      098.1028 deg
RA of node:       312.0985 deg
Eccentricity:    0.0082974
Arg of perigee:   207.9670 deg
Mean anomaly:     151.7048 deg
Mean motion:   14.40581549 rev/day
Decay rate:        7.0e-08 rev/day^2
Epoch rev:           17159
Checksum:              340

Satellite: CO-56
Catalog number: 28941
Epoch time:      07278.84550317
Element set:    0586
Inclination:      098.1170 deg
RA of node:       352.5334 deg
Eccentricity:    0.0210569
Arg of perigee:   239.7520 deg
Mean anomaly:     118.2719 deg
Mean motion:   15.43746028 rev/day
Decay rate:     1.9432e-04 rev/day^2
Epoch rev:           09048
Checksum:              330

Satellite: HO-59
Catalog number: 29484
Epoch time:      07279.22804979
Element set:     741
Inclination:      098.2689 deg
RA of node:       346.4972 deg
Eccentricity:    0.0178714
Arg of perigee:   224.9941 deg
Mean anomaly:     133.6685 deg
Mean motion:   15.59177561 rev/day
Decay rate:     4.2413e-04 rev/day^2
Epoch rev:            5833
Checksum:              375

Satellite: NO-61
Catalog number: 29664
Epoch time:      07279.34586945
Element set:     533
Inclination:      051.6287 deg
RA of node:       223.0950 deg
Eccentricity:    0.0011147
Arg of perigee:   069.4505 deg
Mean anomaly:     290.7701 deg
Mean motion:   16.00849182 rev/day
Decay rate:     7.6298e-04 rev/day^2
Epoch rev:            4590
Checksum:              330

Satellite: CP4
Catalog number: 31122
Epoch time:      07278.83660977
Element set:     152
Inclination:      098.0741 deg
RA of node:       348.4819 deg
Eccentricity:    0.0086096
Arg of perigee:   042.7451 deg
Mean anomaly:     318.0369 deg
Mean motion:   14.55038005 rev/day
Decay rate:       5.50e-06 rev/day^2
Epoch rev:            2494
Checksum:              308

